Location: Gaast
(52.9002°N, 5.8891°E)
Time: 23:00:24
(UTC+00:00)

Cosmos 540 Rocket - Pass Details

Date: 18 November 2025
Orbit: 735 x 748 km, 74.1° (Epoch: 04 December)

Event Time Altitude Azimuth Distance (km) Brightness Sun altitude
Rises 16:35:56 0° 334° (NNW) 3,204 6.8 -8.7°
Reaches altitude 10° 16:38:19 10° 337° (NNW) 2,274 6.0 -9.1°
Maximum altitude 16:43:28 72° 62° (ENE) 789 3.4 -9.8°
Drops below altitude 10° 16:48:34 10° 147° (SSE) 2,251 5.8 -10.5°
Sets 16:50:55 0° 149° (SSE) 3,168 6.6 -10.9°
